Regional Weather Roundup
Issued by NWS

Home | Current Version | Previous Version | Text Only | Print | Product List | Glossary On
Versions: 1 2 3 4 5 6 7 8 9 10 11 12 13 14 15 16 17 18 19 20 21 22 23 24 25 26 27 28 29 30 31 32 33 34 35 36 37 38 39 40 41 42 43 44 45 46 47 48 49 50
000
ASUS45 KBOU 262207
RWRCO

WEATHER ROUNDUP FOR COLORADO
NATIONAL WEATHER SERVICE DENVER/BOULDER CO
300 PM MST THU FEB 26 2015

NOTE: "FAIR" INDICATES FEW OR NO CLOUDS BELOW 12000 FEET WITH NO
SIGNIFICANT WEATHER AND/OR OBSTRUCTIONS TO VISIBILITY.

COZ001>005-013-030-031-262300-
...NORTHWEST COLORADO...

CITY           SKY/WX    TMP DP  RH WIND       PRES   REMARKS
CRAIG          LGT SNOW  29  19  66 CALM      29.89F
HAYDEN         CLOUDY    27  12  54 NW6       29.88F WCI  20
MEEKER         LGT SNOW  31  24  75 SW7       29.86F WCI  24
MOUNT WERNER   NOT AVBL
STEAMBOAT SPGS CLOUDY    26  13  59 CALM      29.87F
WALDEN         CLOUDY    21  12  68 N7        29.85S WCI  13
$$

COZ006>008-011-262300-
...WEST CENTRAL VALLEYS...

CITY           SKY/WX    TMP DP  RH WIND       PRES   REMARKS
GRAND JUNCTION CLOUDY    42  15  33 NE6       29.87F
MONTROSE       CLOUDY    32  20  61 E5        29.89F WCI  27
EAGLE          CLOUDY    36  12  38 S15G21    29.85F
RIFLE          CLOUDY    39  11  31 CALM      29.86F
DELTA          CLOUDY    38  27  62 CALM      29.88F
NUCLA          CLOUDY    37  14  38 CALM      29.90F
$$

COZ017>023-064>068-262300-
...SOUTHWEST COLORADO...

CITY           SKY/WX    TMP DP  RH WIND       PRES   REMARKS
DURANGO        CLOUDY    35  25  66 NE6       29.89F WCI  30
CORTEZ         PTSUNNY   40  25  55 SW9       29.88F
PAGOSA SPRINGS CLOUDY    35  17  46 W7        29.88F WCI  30
TELLURIDE      CLOUDY    29   5  35 W10       29.85F WCI  20
WOLF CREEK PAS CLOUDY    12  10  92 SW18G26   29.86F WCI  -5
$$

COZ009-010-012-014-032>034-037-058>063-262300-
...CENTRAL COLORADO...

CITY           SKY/WX    TMP DP  RH WIND       PRES   REMARKS
ASPEN          CLOUDY    28  12  51 NW13G18   29.82F WCI  17
BUENA VISTA    CLOUDY    22  13  66 CALM      29.84F
COPPER MTN     SNOW      14   9  79 CALM      29.76S VSB 1/4
BERTHOUD PASS  CLOUDY     3  -4  72 NW13      29.75S HAZE    WCI -14
COTTONWOOD PAS CLOUDY    23  12  63 SE5       29.80F WCI  17
GUNNISON       CLOUDY    25   9  50 CALM      29.88F
KREMMLING      LGT SNOW  25  18  74 CALM      29.87F
LEADVILLE      CLOUDY    18   8  65 N9        29.78F WCI   7
MONARCH PASS     N/A     10   5  79 MISG      29.87F
SALIDA         CLOUDY    27  17  66 SE18G26   29.92F WCI  13
SUNLIGHT       LGT SNOW  19  16  86 CALM        N/A  VSB 3/4
WILKERSON PASS LGT SNOW  16  10  79 S5        29.81F WCI   9
$$

COZ069>075-262300-
...SAN LUIS VALLEY/SANGRE DE CRISTO MOUNTAINS...

CITY           SKY/WX    TMP DP  RH WIND       PRES   REMARKS
ALAMOSA        CLOUDY    31  22  69 S6        29.86F WCI  25
LA VETA PASS   LGT SNOW  21  18  86 S6        29.83F WCI  14
SAGUACHE       CLOUDY    27  18  69 S9        29.88F WCI  17
$$

COZ035-036-038>040-262300-
...NORTHERN COLORADO FRONT RANGE...

CITY           SKY/WX    TMP DP  RH WIND       PRES   REMARKS
DENVER INTL AP LGT SNOW  16  11  80 E12       30.11S VSB 1   WCI   3
DMNS CITY PARK   N/A     17  13  82 N8        30.12R WCI   7
AURORA         LGT SNOW  15  11  84 E12       30.09S VSB 1   WCI   2
FRONT RANGE AP SNOW      19  14  79 E10G16    30.11  VSB 1/2 WCI   8
ERIE MUNI ARPT LGT SNOW  18  14  83 NE7       30.14S WCI   9
BOULDER MUN AP LGT SNOW  19  14  79 NE6       30.13S WCI  11
CENTENNIAL     SNOW      16  12  84 NE12      30.06S VSB 1/2 WCI   3
BROOMFIELD     LGT SNOW  16  12  86 NE8       30.10S VSB 7/8 WCI   5
FORT COLLINS   CLOUDY    18  10  73 E7        30.16S WCI   8
LONGMONT       LGT SNOW  24  14  65 CALM      30.17S
$$

COZ041-046-047-076>085-087-088-262300-
...PIKES PEAK/PALMER DIVIDE AND SOUTHERN FOOTHILLS...

CITY           SKY/WX    TMP DP  RH WIND       PRES   REMARKS
COLO. SPRINGS  LGT SNOW  14  10  84 SE18      30.06R VSB 3/4 WCI  -3
A. F. ACADEMY  LGT SNOW  12   7  79 S15       30.01S WCI  -4
ELLICOTT       NOT AVBL
FALCON         LGT SNOW  13   7  78 S14       30.02R WCI  -2
FORT CARSON    SNOW      14  11  86 SE17      30.06R VSB 1/2 WCI  -3
LIMON          LGT SNOW  13  10  88 SE14      30.13S FOG     WCI  -2
MONUMENT HILL  LGT SNOW  14   9  79 S12       29.99R VSB 1   WCI   0
TRINIDAD       CLOUDY    21  15  78 E7        30.03F WCI  12
$$

COZ042>045-048>051-090-091-262300-
...NORTHEAST COLORADO...

CITY           SKY/WX    TMP DP  RH WIND       PRES   REMARKS
GREELEY ARPT   CLOUDY    19   7  58 E14       30.16F WCI   6
AKRON          LGT SNOW  14   8  77 E9        30.20S WCI   2
BURLINGTON     LGT SNOW  17   9  70 NE7       30.24F WCI   8
WRAY           CLOUDY    20   8  60 E3        30.29S
STERLING       CLOUDY    19  10  68 E5        30.25S WCI  13
HOLYOKE        NOT AVBL
FORT MORGAN    CLOUDY    17   8  68 NE10      30.22S WCI   4
$$

COZ086-089-092>099-262300-
...SOUTHEAST COLORADO...

CITY           SKY/WX    TMP DP  RH WIND       PRES   REMARKS
PUEBLO         CLOUDY    18  12  77 SE14      30.14F WCI   4
LA JUNTA       LGT SNOW  19  13  77 SE16      30.20S WCI   4
LAMAR          LGT SNOW  20  14  77 SE15      30.24F WCI   6
SPRINGFIELD      N/A     17  13  84 E13       30.19F WCI   4
$$



USA.gov is the U.S. government's official web portal to all federal, state and local government web resources and services.